Regional Weather Roundup
Issued by NWS State College, PA

Current Version | Previous Version | Text Only | Print | Product List | Glossary On
Versions: 1 2 3 4 5 6 7 8 9 10 11 12 13 14 15 16 17 18 19 20 21 22 23 24 25 26 27 28 29 30 31 32 33 34 35 36 37 38 39 40 41 42 43 44 45 46 47 48 49 50
730
ASUS41 KCTP 291210
RWRCTP

REGIONAL WEATHER ROUNDUP
NATIONAL WEATHER SERVICE STATE COLLEGE PA
800 AM EDT FRI JUL 29 2016

Note: "fair" indicates few or no clouds below 12,000 feet with no
significant weather and/or obstructions to visibility.

* = STATION THAT DOES NOT REPORT PRECIPITATION /E.G. RAIN...SNOW...ETC/
    THUNDER OR FOG.

PAZ002>004-007>009-013>016-020>023-029>032-291300-
WESTERN PENNSYLVANIA

CITY           SKY/WX    TMP DP  RH WIND       PRES   REMARKS
ERIE           CLOUDY    70  66  87 S3        29.93S
MEADVILLE      FOG       65  65 100 CALM      29.96S VSB 1
FRANKLIN*      CLOUDY    64  63  94 CALM      29.98S VSB<1/4
NEW CASTLE     FOG       67  66  97 CALM      29.97R VSB<1/4
BEAVER COUNTY  FOG       64  64 100 CALM      29.97R VSB 1/8
BUTLER*        CLOUDY    64  63  94 CALM      29.99R VSB<1/4
PITTSBURGH INT FOG       67  65  93 CALM      29.96R VSB<1/4
PITTSBURGH     CLOUDY    69  66  90 CALM      29.96R FOG
INDIANA*       CLOUDY    68  68 100 CALM      30.01R FOG
LATROBE        PTSUNNY   68  68 100 CALM      29.98R FOG
WASHINGTON CO* CLOUDY    68  66  94 CALM      29.97S
$$

PAZ004>006-010>012-017>019-024>028-033>037-041-042-045-046-049>053-291300-
CENTRAL PENNSYLVANIA

CITY           SKY/WX    TMP DP  RH WIND       PRES   REMARKS
BRADFORD       FOG       66  65  96 CALM      29.99R VSB 1/4
DUBOIS         FOG       66  64  93 NW6       29.98R VSB 1
CLEARFIELD     FOG       66  64  93 CALM      29.97R VSB 1/4
JOHNSTOWN      CLOUDY    66  63  90 N6        30.00R FOG
ALTOONA        PTSUNNY   68  66  93 NW6       29.97R FOG
STATE COLLEGE  FOG       66  66 100 CALM      29.95R VSB 3/4
WILLIAMSPORT   MOSUNNY   72  67  84 W9        29.89R
SELINSGROVE    SUNNY     70  69  97 CALM      29.90S
FT INDIANTOWN  SUNNY     72  66  81 NW2       29.88R
CAPITAL CITY   MOSUNNY   74  70  87 W8        29.88R
HARRISBURG     MOSUNNY   73  72  96 NW7       29.87R
YORK           MOSUNNY   73  70  90 NW5       29.89S
$$

PAZ038>040-043-044-047-048-054-055-060>062-067>071-291300-
EASTERN PENNSYLVANIA

CITY           SKY/WX    TMP DP  RH WIND       PRES   REMARKS
SCRANTON       CLOUDY    71  69  93 W6        29.90R FOG
MOUNT POCONO   CLOUDY    69  66  90 N3        29.93S
ALLENTOWN      CLOUDY    73  70  90 N3        29.87R FOG
QUAKERTOWN*    CLOUDY    70  70 100 CALM      29.88S
READING        PTSUNNY   73  69  87 CALM      29.87R
LANCASTER      CLOUDY    71  69  93 NW3       29.88R FOG
COATESVILLE    CLOUDY    72  70  94 N5        29.90R
POTTSTOWN      CLOUDY    71  69  93 CALM      29.88R
BLUE BELL      CLOUDY    70  70 100 N3        29.85R
DOYLESTOWN     CLOUDY    69  69 100 NE8       29.86R
WILLOW GROVE   NOT AVBL
NORTH PHILA    LGT RAIN  73  71  93 NE9       29.86R FOG
PHILADELPHIA   CLOUDY    73  71  93 N12       29.84R
$$




USA.gov is the U.S. government's official web portal to all federal, state and local government web resources and services.